Satellite-Ground Cal/Val Site Overpasses Predictions

Prediction of Satellite NPP Overpassing Cal/Val Site: Antarctic Dome C

Ground Cal/Val Site Location: Latitude: -75.10, Longitude: 123.35; Satellite-Ground Site NADIR distance within 100 km.

Table of predicted overpasses for the next 14.0 days since TLE Epoch: 6/8/2017
Interval Starting Time Ending Time Minimum Distance Time Minimum Distance (km)
1 06/09/2017 07:18:46 06/09/2017 07:19:05 06/09/2017 07:18:56 76.66
2 06/11/2017 15:01:00 06/11/2017 15:01:24 06/11/2017 15:01:12 57.29
3 06/12/2017 14:42:10 06/12/2017 14:42:35 06/12/2017 14:42:22 51.76
4 06/13/2017 07:43:51 06/13/2017 07:44:12 06/13/2017 07:44:01 68.69
5 06/14/2017 07:24:59 06/14/2017 07:25:26 06/14/2017 07:25:12 39.32
6 06/16/2017 15:07:25 06/16/2017 15:07:33 06/16/2017 15:07:29 94.88
7 06/17/2017 14:48:24 06/17/2017 14:48:53 06/17/2017 14:48:38 16.37
8 06/19/2017 07:31:13 06/19/2017 07:31:42 06/19/2017 07:31:28 3.66


NCC Satellite Cal/Val Overpasses Prediction Service
